Regional Weather Roundup
Issued by NWS

Home | Current Version | Previous Version | Graphics & Text | Print | Product List | Glossary On
Versions: 1 2 3 4 5 6 7 8 9 10 11 12 13 14 15 16 17 18 19 20 21 22 23 24 25 26 27 28 29 30 31 32 33 34 35 36 37 38 39 40 41 42 43 44 45 46 47 48 49 50
221
ASUS43 KTOP 171759
RWRKS

WEATHER ROUNDUP FOR KANSAS
NATIONAL WEATHER SERVICE GOODLAND KS
1200 PM CST WED JAN 17 2018

NOTE:  "FAIR" INDICATES FEW OR NO CLOUDS BELOW 12,000 FEET WITH NO
SIGNIFICANT WEATHER AND/OR OBSTRUCTIONS TO VISIBILITY.

KSZ001>006-013>018-027>032-041>047-171900-
NORTHWEST KANSAS

CITY           SKY/WX    TMP DP  RH WIND       PRES   REMARKS
GOODLAND       SUNNY     36  12  37 W6        30.31S
6HR MIN TEMP:   8; 6HR MAX TEMP:  36;

HAYS           SUNNY     28  12  51 SW12      30.45F WCI  18
HILL CITY      SUNNY     25   6  44 S8        30.41F
6HR MIN TEMP:   7; 6HR MAX TEMP:  25;

RUSSELL        SUNNY     25  12  58 S16       30.46F WCI  12
6HR MIN TEMP:   4; 6HR MAX TEMP:  25;

$$

KSZ061>065-074>080-084>089-171900-
SOUTHWEST KANSAS

CITY           SKY/WX    TMP DP  RH WIND       PRES   REMARKS
DODGE CITY     SUNNY     29   4  34 S14       30.42F WCI  18
6HR MIN TEMP:   4; 6HR MAX TEMP:  29;

GARDEN CITY    SUNNY     29   6  38 SW10      30.37F WCI  20
6HR MIN TEMP:   4; 6HR MAX TEMP:  29;

GREAT BEND     SUNNY     29  10  45 S14       30.48F WCI  18
LIBERAL        SUNNY     40   7  25 SW15      30.38F WCI  32
$$

KSZ066>073-081>083-090>101-171900-
SOUTHEAST KANSAS

CITY           SKY/WX    TMP DP  RH WIND       PRES   REMARKS
COFFEYVILLE    CLOUDY    17  11  77 VRB3      30.72F
6HR MIN TEMP:  -3; 6HR MAX TEMP:  18;

HUTCHINSON     SUNNY     26  10  50 S16       30.54F WCI  14
6HR MIN TEMP:   2; 6HR MAX TEMP:  26;

MEDICINE LODGE   N/A     25   0  33 S16G23    30.54F WCI  12
NEWTON         SUNNY     23  11  60 S16       30.56F WCI  10
PARSONS        CLOUDY    16  10  77 SW8       30.71F
6HR MIN TEMP:  -4; 6HR MAX TEMP:  16;

WICHITA INTL   SUNNY     24   9  52 S16       30.59F WCI  11
6HR MIN TEMP:   2; 6HR MAX TEMP:  24;

WICHITA JABRA  SUNNY     21  10  62 S13       30.58F WCI   9
6HR MIN TEMP:   5; 6HR MAX TEMP:  21;

WICHITA MCCONL SUNNY     23   9  54 S13       30.59F WCI  11
WINFIELD       SUNNY     24   9  52 S10       30.64F WCI  14
6HR MIN TEMP:   2; 6HR MAX TEMP:  24;

$$

KSZ007>012-019>026-033>040-048>060-102>105-171900-
NORTHEAST KANSAS

CITY           SKY/WX    TMP DP  RH WIND       PRES   REMARKS
CONCORDIA      CLOUDY    22  10  60 SW10      30.50F WCI  11
6HR MIN TEMP:   5; 6HR MAX TEMP:  22;

EMPORIA        SUNNY     21  12  68 S12       30.60F WCI   9
6HR MIN TEMP:   2; 6HR MAX TEMP:  21;

LAWRENCE       SUNNY     19   9  65 SW10      30.64F WCI   7
6HR MIN TEMP:  -7; 6HR MAX TEMP:  20;

MANHATTAN      SUNNY     23   9  55 S13       30.59F WCI  11
6HR MIN TEMP:  -2; 6HR MAX TEMP:  23; 6HR PCP: TRACE;

OLATHE IND     SUNNY     17   9  70 SW14      30.64F WCI   3
6HR MIN TEMP:  -1; 6HR MAX TEMP:  17;

OLATHE EXE     SUNNY     16   8  71 SW9       30.63F
6HR MIN TEMP:   0; 6HR MAX TEMP:  17;

SALINA         SUNNY     23  11  60 S10       30.56F WCI  12
6HR MIN TEMP:   1; 6HR MAX TEMP:  23;

TOPEKA BILLARD SUNNY     21  10  62 S9        30.62F
6HR MIN TEMP:  -4; 6HR MAX TEMP:  21;

TOPEKA FORBES  SUNNY     20  10  65 SW10      30.61F WCI   9
6HR MIN TEMP:  -1; 6HR MAX TEMP:  20;

$$




USA.gov is the U.S. government's official web portal to all federal, state and local government web resources and services.